Starlink 5448

operational
NORAD ID: 54770 Int'l Des: 2022-175 Owner: SPXS Country: US Constellation: starlink
LEOCIRCULAR

Starlink 5448について

説明を読み込み中...

リアルタイム位置

3D地球を読み込み中...

次回通過

高度履歴

Altitude vs Time

uPlot chart will show altitude changes over time

軌道要素

1 54770U 22175N 26035.68023519 -.00000387 00000-0 -62009-5 0 9992
2 54770 53.2169 177.4884 0001336 92.4216 267.6929 15.08837689175141
Epoch: Feb 4, 2026 • Age: 9 hours

現在のステータス

高度 555.5 km
速度 7.58 km/s
衛星直下点 -44.38°S, 112.76°W
打ち上げ日 Dec 17, 2022
運用期間 3.1 years
タイプ internet

技術仕様

分類 Payload
質量 305.00 kg
乾燥質量 290.00 kg
総質量 305.00 kg
長さ 0.20 m
直径 2.80 m
スパン 9.00 m
形状 Box + pan
製造者 SPXS
バスタイプ Starlink
フェーズステータス In Orbit
所有者/国 SPXS/US

大規模コンステレーション

Loading constellations...